When you browse on this site, cookies collect data to enhance your experience and personalize the content and advertising you see.
Visit our Privacy Policy to learn more. By continuing to use the site, you agree to this use of cookies and data.

Previsão horária em Vila Real

Hoje, 9 Julho, Quinta-feira

Tempo Temperatura Precipitação Vento Pressão Humidade
00:00 +21°C° 0 mm 1 m/s 720 mmHg 70%
01:00 +21°C° 0 mm 1 m/s 720 mmHg 72%
02:00 +20°C° 0 mm 1 m/s 720 mmHg 74%
03:00 +20°C° 0 mm 1 m/s 720 mmHg 74%
04:00 +21°C° 0 mm 1 m/s 720 mmHg 75%
05:00 +21°C° 0 mm 1 m/s 721 mmHg 75%
06:00 +23°C° 0 mm 1 m/s 721 mmHg 66%
07:00 +26°C° 0 mm 1 m/s 722 mmHg 57%
08:00 +28°C° 0 mm 1 m/s 722 mmHg 48%
09:00 +30°C° 0 mm 1 m/s 722 mmHg 42%
10:00 +32°C° 0 mm 1 m/s 722 mmHg 37%
11:00 +35°C° 0 mm 2 m/s 722 mmHg 32%
12:00 +36°C° 0 mm 2 m/s 722 mmHg 31%
13:00 +36°C° 0 mm 2 m/s 722 mmHg 30%
14:00 +36°C° 0 mm 3 m/s 721 mmHg 29%
15:00 +34°C° 0.2 mm 3 m/s 721 mmHg 36%
16:00 +31°C° 0.2 mm 3 m/s 721 mmHg 43%
17:00 +29°C° 0.2 mm 3 m/s 721 mmHg 50%
18:00 +27°C° 0.1 mm 2 m/s 721 mmHg 54%
19:00 +26°C° 0.1 mm 2 m/s 721 mmHg 58%
20:00 +24°C° 0.1 mm 1 m/s 722 mmHg 62%
21:00 +23°C° 0 mm 1 m/s 722 mmHg 63%
22:00 +22°C° 0 mm 1 m/s 722 mmHg 63%
23:00 +22°C° 0 mm 1 m/s 722 mmHg 64%

Amanhã, 10 Julho, Sexta-feira

Tempo Temperatura Precipitação Vento Pressão Humidade
00:00 +21°C° 0 mm 1 m/s 721 mmHg 65%
01:00 +21°C° 0 mm 1 m/s 721 mmHg 66%
02:00 +20°C° 0 mm 1 m/s 721 mmHg 67%
03:00 +20°C° 0 mm 1 m/s 721 mmHg 68%
04:00 +20°C° 0 mm 1 m/s 721 mmHg 69%
05:00 +20°C° 0 mm 1 m/s 721 mmHg 70%
06:00 +23°C° 0 mm 1 m/s 721 mmHg 64%
07:00 +25°C° 0 mm 1 m/s 722 mmHg 58%
08:00 +28°C° 0 mm 1 m/s 722 mmHg 52%
09:00 +29°C° 0 mm 1 m/s 722 mmHg 46%
10:00 +31°C° 0 mm 1 m/s 722 mmHg 41%
11:00 +33°C° 0 mm 1 m/s 722 mmHg 36%
12:00 +34°C° 0 mm 1 m/s 722 mmHg 33%
13:00 +35°C° 0 mm 1 m/s 721 mmHg 30%
14:00 +36°C° 0 mm 1 m/s 721 mmHg 27%
15:00 +36°C° 0 mm 2 m/s 721 mmHg 28%
16:00 +35°C° 0 mm 2 m/s 720 mmHg 29%
17:00 +34°C° 0 mm 3 m/s 720 mmHg 30%
18:00 +31°C° 0 mm 2 m/s 720 mmHg 37%
19:00 +28°C° 0 mm 2 m/s 721 mmHg 44%
20:00 +25°C° 0 mm 2 m/s 721 mmHg 51%
21:00 +25°C° 0 mm 2 m/s 721 mmHg 54%
22:00 +24°C° 0 mm 2 m/s 721 mmHg 56%
23:00 +22°C° 0 mm 3 m/s 721 mmHg 59%

Depois de amanhã, 11 Julho, Sábado

Tempo Temperatura Precipitação Vento Pressão Humidade
00:00 +21°C° 0 mm 3 m/s 720 mmHg 61%
01:00 +20°C° 0 mm 3 m/s 720 mmHg 64%
02:00 +20°C° 0 mm 2 m/s 720 mmHg 66%
03:00 +19°C° 0 mm 2 m/s 720 mmHg 65%
04:00 +19°C° 0 mm 3 m/s 720 mmHg 64%
05:00 +19°C° 0 mm 3 m/s 720 mmHg 63%
06:00 +20°C° 0 mm 3 m/s 720 mmHg 57%
07:00 +22°C° 0 mm 3 m/s 720 mmHg 52%
08:00 +25°C° 0 mm 3 m/s 720 mmHg 46%
09:00 +27°C° 0 mm 3 m/s 720 mmHg 42%
10:00 +30°C° 0 mm 3 m/s 721 mmHg 37%
11:00 +33°C° 0 mm 3 m/s 721 mmHg 32%
12:00 +35°C° 0 mm 2 m/s 720 mmHg 29%
13:00 +36°C° 0 mm 2 m/s 720 mmHg 27%
14:00 +37°C° 0 mm 1 m/s 720 mmHg 24%
15:00 +36°C° 0 mm 1 m/s 719 mmHg 24%
16:00 +36°C° 0 mm 1 m/s 719 mmHg 24%
17:00 +36°C° 0 mm 1 m/s 719 mmHg 25%
18:00 +34°C° 0 mm 2 m/s 719 mmHg 30%
19:00 +31°C° 0 mm 2 m/s 719 mmHg 34%
20:00 +28°C° 0 mm 2 m/s 719 mmHg 39%
21:00 +27°C° 0.1 mm 2 m/s 719 mmHg 44%
22:00 +26°C° 0.1 mm 2 m/s 718 mmHg 49%
23:00 +25°C° 0.1 mm 2 m/s 718 mmHg 54%

12 Julho, Domingo

Tempo Temperatura Precipitação Vento Pressão Humidade
00:00 +24°C° 0.7 mm 2 m/s 718 mmHg 59%
01:00 +23°C° 0.7 mm 2 m/s 718 mmHg 64%
02:00 +23°C° 0.7 mm 2 m/s 718 mmHg 68%
03:00 +23°C° 0.1 mm 2 m/s 719 mmHg 68%
04:00 +21°C° 0.1 mm 2 m/s 719 mmHg 68%
05:00 +21°C° 0.1 mm 2 m/s 719 mmHg 68%
06:00 +25°C° 0 mm 2 m/s 720 mmHg 60%
07:00 +27°C° 0 mm 2 m/s 720 mmHg 52%
08:00 +29°C° 0 mm 1 m/s 721 mmHg 44%
09:00 +31°C° 0 mm 1 m/s 721 mmHg 39%
10:00 +33°C° 0 mm 1 m/s 721 mmHg 35%
11:00 +35°C° 0 mm 1 m/s 721 mmHg 31%
12:00 +35°C° 0 mm 1 m/s 721 mmHg 29%
13:00 +36°C° 0 mm 2 m/s 721 mmHg 28%
14:00 +37°C° 0 mm 2 m/s 720 mmHg 27%
15:00 +36°C° 0 mm 3 m/s 720 mmHg 31%
16:00 +34°C° 0 mm 3 m/s 720 mmHg 35%
17:00 +33°C° 0 mm 4 m/s 720 mmHg 39%
18:00 +29°C° 0.3 mm 3 m/s 721 mmHg 48%
19:00 +27°C° 0.3 mm 2 m/s 721 mmHg 57%
20:00 +22°C° 0.3 mm 0 m/s 721 mmHg 66%
21:00 +24°C° 0 mm 1 m/s 721 mmHg 67%
22:00 +24°C° 0 mm 1 m/s 721 mmHg 68%
23:00 +23°C° 0 mm 1 m/s 721 mmHg 68%

13 Julho, Segunda-feira

Tempo Temperatura Precipitação Vento Pressão Humidade
00:00 +23°C° 0 mm 1 m/s 721 mmHg 69%
01:00 +22°C° 0 mm 1 m/s 721 mmHg 69%
02:00 +22°C° 0 mm 1 m/s 721 mmHg 69%
03:00 +22°C° 0 mm 1 m/s 721 mmHg 69%
04:00 +22°C° 0 mm 1 m/s 721 mmHg 69%
05:00 +22°C° 0 mm 1 m/s 721 mmHg 69%
06:00 +24°C° 0 mm 1 m/s 722 mmHg 61%
07:00 +25°C° 0 mm 0 m/s 722 mmHg 53%
08:00 +28°C° 0 mm 0 m/s 722 mmHg 45%
09:00 +31°C° 0 mm 1 m/s 722 mmHg 41%
10:00 +33°C° 0 mm 1 m/s 722 mmHg 36%
11:00 +35°C° 0 mm 1 m/s 722 mmHg 32%
12:00 +36°C° 0 mm 2 m/s 722 mmHg 31%
13:00 +36°C° 0 mm 3 m/s 722 mmHg 30%
14:00 +36°C° 0 mm 3 m/s 721 mmHg 29%
15:00 +35°C° 0 mm 4 m/s 721 mmHg 32%
16:00 +34°C° 0 mm 4 m/s 721 mmHg 35%
17:00 +33°C° 0 mm 4 m/s 721 mmHg 38%
18:00 +30°C° 0 mm 3 m/s 721 mmHg 45%
19:00 +27°C° 0 mm 2 m/s 721 mmHg 51%
20:00 +25°C° 0 mm 1 m/s 721 mmHg 57%
21:00 +23°C° 0 mm 2 m/s 721 mmHg 59%
22:00 +21°C° 0 mm 2 m/s 721 mmHg 61%
23:00 +20°C° 0 mm 2 m/s 721 mmHg 63%

14 Julho, Terça-feira

Tempo Temperatura Precipitação Vento Pressão Humidade
00:00 +20°C° 0 mm 2 m/s 721 mmHg 65%
01:00 +19°C° 0 mm 2 m/s 721 mmHg 67%
02:00 +19°C° 0 mm 2 m/s 720 mmHg 69%
03:00 +19°C° 0 mm 2 m/s 721 mmHg 71%
04:00 +18°C° 0 mm 2 m/s 721 mmHg 73%
05:00 +18°C° 0 mm 2 m/s 721 mmHg 75%
06:00 +20°C° 0 mm 2 m/s 721 mmHg 68%
07:00 +21°C° 0 mm 3 m/s 721 mmHg 60%
08:00 +24°C° 0 mm 3 m/s 721 mmHg 53%
09:00 +26°C° 0 mm 3 m/s 721 mmHg 47%
10:00 +28°C° 0 mm 3 m/s 721 mmHg 41%
11:00 +30°C° 0 mm 3 m/s 722 mmHg 35%
12:00 +31°C° 0 mm 3 m/s 721 mmHg 31%
13:00 +33°C° 0 mm 3 m/s 721 mmHg 28%
14:00 +34°C° 0 mm 3 m/s 721 mmHg 24%
15:00 +33°C° 0 mm 3 m/s 721 mmHg 25%
16:00 +33°C° 0 mm 3 m/s 721 mmHg 25%
17:00 +33°C° 0 mm 3 m/s 721 mmHg 25%
18:00 +29°C° 0 mm 3 m/s 721 mmHg 30%
19:00 +27°C° 0 mm 3 m/s 721 mmHg 35%
20:00 +25°C° 0 mm 3 m/s 721 mmHg 41%
21:00 +22°C° 0 mm 3 m/s 721 mmHg 43%
22:00 +21°C° 0 mm 3 m/s 721 mmHg 45%
23:00 +20°C° 0 mm 3 m/s 722 mmHg 48%
Mostrar mais